[[{"header":{"parameterUnit":"m.s-1","parameterCategory":1,"la1":30.2991,"la2":30.254,"lo1":-89.0895,"lo2":-89.0444,"dy":0.0017,"dx":0.0017,"nx":28,"ny":28,"refTime":"2024-04-01T03:00:00:Z","depth":0,"parameterNumber":2,"parameterNumberName":"U-component_of_WINDS"},"data":[0,0,0,0,0,0,0,0,0,0,0,0,0,0,0,0,0,0,0,0,0,0,0,0,0,0,0,0,0,0,0,0,0,0,0,0,0,0,0,0,0,0,0,0,0,0,0,0,0,0,0,0,0,0,0,0,0,0,-2.9511,-2.9512,0,-2.9586,-2.9587,-2.9588,-2.9584,-2.9583,-2.9582,-2.9581,-2.9657,-2.966,-2.9663,0,0,0,0,0,0,0,0,0,0,0,0,0,-2.9363,-2.9366,-2.9511,-2.9512,-2.9513,-2.9586,-2.9587,-2.9588,-2.9584,-2.9583,-2.9582,-2.9581,-2.9656,-2.9659,-2.9663,0,0,0,0,0,0,0,0,0,0,0,0,0,-2.9432,-2.9367,-2.9511,-2.952,-2.9521,-2.9586,-2.9587,-2.9588,-2.9585,-2.9583,-2.9582,-2.958,-2.9655,-2.9659,-2.9663,-2.9723,0,0,-2.9677,-2.9679,0,0,0,0,0,0,0,0,-2.9428,-2.9437,-2.9517,-2.9519,-2.9521,-2.9574,-2.9563,-2.9634,-2.9585,-2.9561,-2.9581,-2.9579,-2.963,-2.9637,-2.9654,-2.9727,-2.973,-2.9678,-2.968,-2.9682,-2.9684,0,0,0,0,0,0,0,-2.9423,-2.9434,-2.954,-2.9519,-2.9521,-2.952,-2.9528,-2.9576,-2.9604,-2.9563,-2.9563,-2.9572,-2.9631,-2.965,-2.9656,-2.9731,-2.9677,-2.9682,-2.9684,-2.9686,-2.9857,-2.9859,0,0,0,0,0,0,-2.9416,-2.943,-2.9538,-2.9543,-2.947,-2.9524,-2.9533,-2.9559,-2.9603,-2.9608,-2.9573,-2.9571,-2.9643,-2.9651,-2.9659,-2.9731,-2.9682,-2.9686,-2.9689,-2.9855,-2.9857,-2.9859,0,0,0,0,0,0,-2.9413,-2.9426,-2.9535,-2.9486,-2.95,-2.9528,-2.9557,-2.9561,-2.958,-2.9611,-2.9616,-2.9587,-2.9642,-2.9653,-2.9708,-2.9734,-2.9689,-2.9693,-2.9853,-2.9856,-2.9858,-2.9877,0,0,0,0,0,0,-2.9409,-2.9425,-2.9448,-2.9487,-2.9503,-2.9583,-2.9559,-2.9564,-2.9588,-2.9586,-2.9626,-2.963,-2.9642,-2.9701,-2.9712,-2.9739,-2.9696,-2.9851,-2.9854,-2.9857,-2.9874,-2.988,-2.9885,0,0,0,0,0,-2.9404,-2.945,-2.9449,-2.9462,-2.9532,-2.9584,-2.9593,-2.9606,-2.959,-2.9613,-2.9633,-2.9629,-2.973,-2.9706,-2.9719,-2.9748,-2.9849,-2.9853,-2.9857,-2.9872,-2.9879,-2.9885,0,0,0,0,0,0,-2.9412,-2.9455,-2.9455,-2.9515,-2.9546,-2.9583,-2.9613,-2.9613,-2.9649,-2.9645,-2.9659,-2.9668,-2.9723,-2.9742,-2.9715,-2.9809,-2.9787,-2.9794,-2.9794,-2.9801,-2.9807,-2.98,-2.97,0,0,0,0,0,-2.9422,-2.946,-2.9496,-2.9545,-2.9561,-2.9585,-2.9608,-2.9615,-2.9647,-2.966,-2.9684,-2.9715,-2.9754,-2.9779,-2.9817,-2.9878,-2.9886,-2.9904,-2.991,-2.9914,-2.9919,-2.9953,-2.9961,-2.9873,-2.9873,-2.9873,0,0,-2.944,-2.9469,-2.9492,-2.9548,-2.9573,-2.9612,-2.9595,-2.9638,-2.9667,-2.9666,-2.9719,-2.9739,-2.9775,-2.9833,-2.986,-2.985,-2.9946,-2.992,-2.9923,-2.9925,-2.9958,-2.9966,-2.9974,-2.9876,-2.9875,-2.9875,0,0,-2.9494,-2.952,-2.9564,-2.959,-2.9628,-2.9644,-2.9654,-2.9692,-2.9705,-2.9759,-2.9759,-2.9795,-2.9861,-2.9887,-2.9908,-2.9974,-2.9971,-2.9986,-3.0014,-3.0047,-3.0054,-3.006,-3.0082,-3.009,-2.9992,-2.9992,-2.9992,0,-2.9512,-2.9572,-2.9587,-2.963,-2.9654,-2.9657,-2.9701,-2.9725,-2.9774,-2.979,-2.9779,-2.9863,-2.9888,-2.9952,-2.9968,-2.9986,-2.9998,-2.9981,-3.0052,-3.0058,-3.0064,-3.0086,-3.0094,-2.9993,-2.9993,-2.9993,-2.9993,0,-2.9592,-2.9634,-2.9665,-2.9712,-2.9741,-2.9784,-2.9805,-2.9832,-2.9838,-2.9854,-2.9909,-2.9939,-2.9983,-2.9999,-3.0005,-3.0064,-3.0057,-3.0049,-3.0027,-3.0074,-3.0094,-3.0102,-2.9995,-2.9995,-2.9994,-2.9994,0,0,-2.9651,-2.9707,-2.9718,-2.974,-2.9783,-2.9816,-2.986,-2.9903,-2.9925,-2.996,-2.9996,-3.0054,-3.0047,-3.0071,-3.008,-3.0109,-3.0158,-3.0097,-3.0098,-3.0106,-3.0225,-3.0229,-3.0239,-3.0158,-3.0159,-3.0161,-3.0222,0,-2.9709,-2.9787,-2.9802,-2.9869,-2.9908,-2.9912,-2.995,-2.9981,-2.9999,-3.0034,-3.0053,-3.0093,-3.0081,-3.0096,-3.0125,-3.0146,-3.0182,-3.0142,-3.0191,-3.0192,-3.018,-3.025,-3.0254,-3.031,-3.023,-3.0231,-3.0232,0,-2.9785,-2.9822,-2.9893,-2.9932,-2.9949,-2.9983,-3.0024,-3.0058,-3.0093,-3.0104,-3.0133,-3.0139,-3.0184,-3.0163,-3.0226,-3.0198,-3.022,-3.0233,-3.0236,-3.0239,-3.0213,-3.0253,-3.0328,-3.0336,-3.0245,-3.0244,-3.0243,0,-2.9819,-2.9887,-2.9938,-2.9957,-3.0004,-3.0028,-3.0048,-3.0082,-3.0107,-3.0144,-3.016,-3.0201,-3.0223,-3.0255,-3.0272,-3.0254,-3.0333,-3.0313,-3.0342,-3.0342,-3.0357,-3.0355,-3.0435,-3.0374,-3.0374,-3.0374,-3.0374,0,-2.988,-2.9924,-2.9954,-2.9986,-3.0034,-3.0052,-3.01,-3.012,-3.0151,-3.0186,-3.0193,-3.0226,-3.0247,-3.0283,-3.0297,-3.0347,-3.0357,-3.0366,-3.0369,-3.0365,-3.0363,-3.0377,-3.0373,-3.0376,-3.0375,-3.0375,-3.0375,0,-2.9926,-2.9948,-3.0004,-3.0045,-3.0056,-3.009,-3.0124,-3.0155,-3.0174,-3.0218,-3.023,-3.0259,-3.0302,-3.0322,-3.0376,-3.0385,-3.0441,-3.0442,-3.0429,-3.0429,-3.0457,-3.0454,-3.0547,-3.0559,-3.0492,-3.0492,-3.0493,0,-2.9962,-2.9996,-3.004,-3.0065,-3.0086,-3.0125,-3.0151,-3.0171,-3.0197,-3.0241,-3.0266,-3.031,-3.0345,-3.0414,-3.0439,-3.048,-3.0481,-3.0511,-3.0487,-3.0482,-3.048,-3.0477,-3.048,-3.0515,-3.0515,-3.0516,-3.0516,0,-3.0024,-3.0034,-3.0071,-3.0113,-3.0144,-3.0178,-3.0211,-3.0231,-3.0255,-3.0285,-3.033,-3.0357,-3.0413,-3.0455,-3.0498,-3.0519,-3.0522,-3.0524,-3.0533,-3.0527,-3.0518,-3.0522,-3.0438,-3.0521,-3.0521,-3.052,-3.052,-3.052,-3.0065,-3.0095,-3.0131,-3.0173,-3.02,-3.0231,-3.0262,-3.0285,-3.0323,-3.0369,-3.0378,-3.0425,-3.0461,-3.0519,-3.0542,-3.0578,-3.0571,-3.0584,-3.0587,-3.059,-3.059,-3.0514,-3.0586,-3.0586,-3.0586,-3.0586,-3.0586,0,-3.0126,-3.015,-3.0188,-3.0235,-3.0268,-3.0269,-3.0306,-3.0333,-3.0374,-3.0408,-3.0443,-3.0494,-3.0536,-3.0566,-3.0608,-3.0632,-3.0634,-3.0643,-3.064,-3.0645,-3.0595,-3.0582,-3.064,-3.064,-3.064,-3.064,-3.064,-3.064,-3.0162,-3.0212,-3.0227,-3.0291,-3.0315,-3.0361,-3.0382,-3.041,-3.0437,-3.0494,-3.0529,-3.0548,-3.058,-3.0625,-3.0664,-3.0672,-3.0686,-3.0695,-3.0702,-3.0654,-3.0648,-3.0643,-3.0631,-3.0698,-3.0698,-3.0748,-3.0749,-3.0749]},{"header":{"parameterUnit":"m.s-1","parameterCategory":1,"la1":30.2991,"la2":30.254,"lo1":-89.0895,"lo2":-89.0444,"dy":0.0017,"dx":0.0017,"nx":28,"ny":28,"refTime":"2024-04-01T03:00:00:Z","depth":0,"parameterNumber":3,"parameterNumberName":"V-component_of_WINDS"},"data":[0,0,0,0,0,0,0,0,0,0,0,0,0,0,0,0,0,0,0,0,0,0,0,0,0,0,0,0,0,0,0,0,0,0,0,0,0,0,0,0,0,0,0,0,0,0,0,0,0,0,0,0,0,0,0,0,0,0,4.8501,4.8502,0,4.8541,4.8541,4.8542,4.8513,4.8512,4.8511,4.8509,4.8548,4.855,4.8552,0,0,0,0,0,0,0,0,0,0,0,0,0,4.84,4.8402,4.8501,4.8502,4.8502,4.8541,4.8541,4.8542,4.8513,4.8512,4.851,4.8509,4.8547,4.855,4.8553,0,0,0,0,0,0,0,0,0,0,0,0,0,4.8442,4.8402,4.8501,4.8493,4.8492,4.8541,4.8541,4.8542,4.8514,4.8512,4.851,4.8508,4.8546,4.855,4.8553,4.8611,0,0,4.8563,4.8564,0,0,0,0,0,0,0,0,4.844,4.8446,4.8493,4.8493,4.8493,4.852,4.852,4.8565,4.8514,4.8505,4.8509,4.8507,4.854,4.8544,4.8555,4.8613,4.8615,4.8563,4.8565,4.8567,4.8568,0,0,0,0,0,0,0,4.8437,4.8444,4.8517,4.8494,4.8494,4.8487,4.849,4.8528,4.8533,4.8506,4.8504,4.8509,4.854,4.8552,4.8556,4.8615,4.8563,4.8566,4.8568,4.857,4.8725,4.8727,0,0,0,0,0,0,4.8435,4.8442,4.8516,4.8518,4.8461,4.849,4.8494,4.8513,4.8532,4.8534,4.8511,4.8508,4.8548,4.8552,4.8557,4.8629,4.8567,4.857,4.8572,4.8723,4.8726,4.8728,0,0,0,0,0,0,4.8433,4.8442,4.8514,4.8479,4.8488,4.8494,4.8515,4.8515,4.8528,4.8536,4.8537,4.8523,4.8546,4.8553,4.8599,4.863,4.8571,4.8574,4.8721,4.8724,4.8727,4.8771,0,0,0,0,0,0,4.843,4.8441,4.8463,4.848,4.849,4.8555,4.8517,4.8517,4.8534,4.853,4.8548,4.8549,4.8545,4.8594,4.8602,4.8633,4.8577,4.8718,4.8722,4.8726,4.8767,4.8775,4.8783,0,0,0,0,0,4.8426,4.8473,4.8465,4.8474,4.8518,4.8557,4.8563,4.8558,4.8536,4.8559,4.8565,4.8548,4.8625,4.8599,4.8608,4.864,4.8716,4.8721,4.8726,4.8763,4.8774,4.8782,0,0,0,0,0,0,4.8459,4.8475,4.8466,4.852,4.8537,4.8552,4.858,4.8569,4.8593,4.8588,4.8581,4.8585,4.8634,4.8641,4.8612,4.8699,4.8667,4.8674,4.8693,4.8702,4.871,4.8708,4.858,0,0,0,0,0,4.8473,4.8503,4.8515,4.8562,4.8571,4.8575,4.8591,4.8587,4.8604,4.8611,4.862,4.8637,4.8666,4.8684,4.871,4.8767,4.8772,4.8794,4.8802,4.8809,4.8815,4.8848,4.8859,4.8744,4.8744,4.8744,0,0,4.8501,4.8513,4.8533,4.8569,4.8582,4.8614,4.8581,4.8615,4.8639,4.8616,4.8661,4.8668,4.8687,4.874,4.8763,4.8747,4.8848,4.8815,4.882,4.8823,4.8854,4.8865,4.8875,4.8747,4.8747,4.8746,0,0,4.8569,4.8581,4.8622,4.8636,4.8657,4.8659,4.8669,4.8686,4.869,4.8735,4.8719,4.8747,4.8795,4.881,4.8824,4.89,4.8886,4.8908,4.895,4.8982,4.8991,4.8999,4.9028,4.9038,4.8914,4.8914,4.8914,0,4.8601,4.8649,4.8644,4.8681,4.8698,4.8679,4.8721,4.8735,4.8763,4.8775,4.8757,4.8819,4.883,4.8887,4.8905,4.8916,4.8928,4.8906,4.899,4.8998,4.9005,4.9033,4.9043,4.8917,4.8917,4.8916,4.8916,0,4.8689,4.8722,4.8753,4.8782,4.8802,4.8841,4.8842,4.8863,4.8857,4.8861,4.8908,4.8921,4.8951,4.8963,4.8957,4.902,4.901,4.8991,4.8959,4.9019,4.9045,4.9055,4.8921,4.892,4.8919,4.8918,0,0,4.8778,4.8806,4.8817,4.8831,4.8853,4.8879,4.8917,4.8947,4.8966,4.8986,4.9019,4.9061,4.9045,4.906,4.9055,4.9083,4.9145,4.9061,4.9062,4.9078,4.9217,4.9233,4.9245,4.9136,4.9138,4.9139,4.9216,0,4.8849,4.8918,4.8915,4.8979,4.9011,4.8994,4.9028,4.9045,4.905,4.9078,4.9083,4.9114,4.9089,4.9098,4.9125,4.9132,4.9173,4.9126,4.9167,4.9169,4.9165,4.9258,4.9274,4.9346,4.9226,4.9228,4.9229,0,4.8941,4.8966,4.9034,4.9053,4.9066,4.9097,4.9125,4.9151,4.9171,4.9173,4.9191,4.9182,4.9222,4.9188,4.9243,4.9211,4.9228,4.9234,4.9236,4.9241,4.9204,4.9267,4.9369,4.9381,4.9245,4.9243,4.9242,0,4.9002,4.9052,4.91,4.9112,4.9135,4.9157,4.9168,4.9186,4.9204,4.9229,4.9241,4.9269,4.9285,4.9307,4.9307,4.9282,4.9363,4.9329,4.9366,4.9367,4.9385,4.9385,4.9493,4.9393,4.9393,4.9393,4.9393,0,4.9083,4.9125,4.9128,4.9157,4.9205,4.9201,4.9248,4.9256,4.9272,4.9303,4.929,4.9319,4.9315,4.9345,4.9344,4.9391,4.9398,4.9401,4.9401,4.9403,4.9403,4.9415,4.9411,4.9396,4.9395,4.9395,4.9394,0,4.916,4.9163,4.9214,4.9232,4.9238,4.9272,4.9288,4.9316,4.932,4.936,4.9368,4.9375,4.9409,4.941,4.9449,4.9449,4.9507,4.95,4.9501,4.95,4.9539,4.9536,4.966,4.9677,4.9564,4.9565,4.9566,0,4.9212,4.9244,4.9267,4.9287,4.9299,4.9331,4.9351,4.9349,4.937,4.9396,4.9421,4.9454,4.9481,4.9536,4.9544,4.9574,4.9569,4.9611,4.9573,4.9576,4.9572,4.9571,4.9575,4.9618,4.962,4.9621,4.9621,0,4.9304,4.9305,4.9334,4.9365,4.9389,4.9412,4.9434,4.9451,4.9452,4.9476,4.9511,4.9532,4.9573,4.9606,4.9636,4.9646,4.9635,4.9633,4.9644,4.9648,4.9648,4.965,4.9522,4.963,4.9629,4.9629,4.9628,4.9628,4.9372,4.9401,4.9422,4.9455,4.9472,4.9493,4.9521,4.9529,4.9559,4.9593,4.9589,4.9629,4.9649,4.9688,4.9701,4.9732,4.9718,4.9733,4.9737,4.9741,4.9747,4.9641,4.9737,4.9737,4.9737,4.9736,4.9736,0,4.9465,4.9478,4.9509,4.9541,4.9568,4.9555,4.9578,4.9602,4.9637,4.9657,4.9684,4.9726,4.9759,4.977,4.9802,4.9825,4.9821,4.9834,4.9833,4.9836,4.9756,4.9745,4.9837,4.9837,4.9837,4.9837,4.9837,4.9837,4.9518,4.9567,4.957,4.9628,4.964,4.968,4.9695,4.9715,4.9731,4.9778,4.9806,4.9813,4.983,4.9863,4.9893,4.9896,4.9909,4.9925,4.9925,4.9851,4.9841,4.9832,4.9821,4.9927,4.9927,5.0003,5.0003,5.0004]}]]